Time,TemperatureF,DewpointF,PressureIn,WindDirection,WindDirectionDegrees,WindSpeedMPH,WindSpeedGustMPH,Humidity,HourlyPrecipIn,Conditions,Clouds,dailyrainin,SoftwareType,DateUTC
2013-01-04 00:03:00,10.8,6.0,30.15,SSW,203,2.5,2.9,81,0.00,,,0.00,WUHU216HW,2013-01-04 06:03:00,
2013-01-04 00:08:00,10.6,5.9,30.15,SSE,158,1.8,3.8,81,0.00,,,0.00,WUHU216HW,2013-01-04 06:08:00,
2013-01-04 00:13:00,10.6,5.9,30.15,West,270,1.1,3.8,81,0.00,,,0.00,WUHU216HW,2013-01-04 06:13:00,
2013-01-04 00:18:00,10.6,5.9,30.15,North,0,1.8,3.6,81,0.00,,,0.00,WUHU216HW,2013-01-04 06:18:00,
2013-01-04 00:23:00,10.4,5.7,30.15,SW,225,2.5,3.6,81,0.00,,,0.00,WUHU216HW,2013-01-04 06:23:00,
2013-01-04 00:28:00,10.4,5.4,30.15,WSW,248,2.5,3.8,80,0.00,,,0.00,WUHU216HW,2013-01-04 06:28:00,
2013-01-04 00:33:00,10.3,5.2,30.15,SSE,158,4.0,4.0,80,0.00,,,0.00,WUHU216HW,2013-01-04 06:33:00,
2013-01-04 00:38:00,10.3,5.2,30.15,SSW,203,1.8,4.0,80,0.00,,,0.00,WUHU216HW,2013-01-04 06:38:00,
2013-01-04 00:43:00,10.1,5.0,30.15,SSW,203,2.2,4.0,80,0.00,,,0.00,WUHU216HW,2013-01-04 06:43:00,
2013-01-04 00:48:00,10.1,5.0,30.14,North,0,1.8,4.0,80,0.00,,,0.00,WUHU216HW,2013-01-04 06:48:00,
2013-01-04 00:53:00,10.1,5.0,30.14,WSW,248,4.7,4.7,80,0.00,,,0.00,WUHU216HW,2013-01-04 06:53:00,
2013-01-04 00:58:00,10.1,5.0,30.14,WSW,248,4.7,4.7,80,0.00,,,0.00,WUHU216HW,2013-01-04 06:58:00,
2013-01-04 02:00:00,9.7,5.6,30.12,South,180,1.1,1.1,83,0.00,,,0.00,WUHU216HW,2013-01-04 08:00:00,
2013-01-04 02:05:00,10.1,5.9,30.12,WSW,248,0.9,3.4,83,0.00,,,0.00,WUHU216HW,2013-01-04 08:05:00,
2013-01-04 02:10:00,10.3,6.0,30.12,SW,225,3.6,4.3,83,0.00,,,0.00,WUHU216HW,2013-01-04 08:10:00,
2013-01-04 02:15:00,10.3,6.0,30.12,NW,315,3.4,5.6,83,0.00,,,0.00,WUHU216HW,2013-01-04 08:15:00,
2013-01-04 02:20:00,10.4,6.2,30.12,SSE,158,3.8,5.6,83,0.00,,,0.00,WUHU216HW,2013-01-04 08:20:00,
2013-01-04 02:25:00,10.4,6.2,30.12,WSW,248,2.7,5.4,83,0.00,,,0.00,WUHU216HW,2013-01-04 08:25:00,
2013-01-04 02:30:00,10.4,6.2,30.12,SSW,203,4.7,5.8,83,0.00,,,0.00,WUHU216HW,2013-01-04 08:30:00,
2013-01-04 02:35:00,10.4,6.2,30.12,South,180,3.1,5.8,83,0.00,,,0.00,WUHU216HW,2013-01-04 08:35:00,
2013-01-04 02:40:00,10.4,6.2,30.12,SSW,203,3.6,5.6,83,0.00,,,0.00,WUHU216HW,2013-01-04 08:40:00,
2013-01-04 02:45:00,10.3,6.0,30.12,South,180,1.3,6.9,83,0.00,,,0.00,WUHU216HW,2013-01-04 08:45:00,
2013-01-04 02:50:00,10.1,5.9,30.12,SSW,203,2.2,6.9,83,0.00,,,0.00,WUHU216HW,2013-01-04 08:50:00,
2013-01-04 02:55:00,10.1,5.9,30.11,South,180,1.1,4.3,83,0.00,,,0.00,WUHU216HW,2013-01-04 08:55:00,
2013-01-04 03:00:00,10.1,5.9,30.11,South,180,3.8,4.3,83,0.00,,,0.00,WUHU216HW,2013-01-04 09:00:00,
2013-01-04 03:05:00,10.3,6.3,30.11,SSW,203,2.5,4.7,84,0.00,,,0.00,WUHU216HW,2013-01-04 09:05:00,
2013-01-04 03:10:00,10.4,6.5,30.11,SE,135,0.2,4.7,84,0.00,,,0.00,WUHU216HW,2013-01-04 09:10:00,
2013-01-04 03:15:00,10.4,6.5,30.10,SSW,203,2.5,4.3,84,0.00,,,0.00,WUHU216HW,2013-01-04 09:15:00,
2013-01-04 03:20:00,10.8,6.8,30.10,WSW,248,3.4,4.7,84,0.00,,,0.00,WUHU216HW,2013-01-04 09:20:00,
2013-01-04 03:25:00,11.2,7.2,30.10,South,180,2.7,7.4,84,0.00,,,0.00,WUHU216HW,2013-01-04 09:25:00,
2013-01-04 03:30:00,11.0,7.0,30.10,NNW,338,3.1,7.4,84,0.00,,,0.00,WUHU216HW,2013-01-04 09:30:00,
2013-01-04 03:35:00,11.0,6.8,30.09,SSW,203,2.5,6.7,83,0.00,,,0.00,WUHU216HW,2013-01-04 09:35:00,
2013-01-04 03:40:00,10.8,6.6,30.09,SW,225,3.6,5.4,83,0.00,,,0.00,WUHU216HW,2013-01-04 09:40:00,
2013-01-04 03:45:00,10.8,6.8,30.09,West,270,3.6,6.0,84,0.00,,,0.00,WUHU216HW,2013-01-04 09:45:00,
2013-01-04 03:50:00,10.8,6.6,30.09,SW,225,3.4,6.3,83,0.00,,,0.00,WUHU216HW,2013-01-04 09:50:00,
2013-01-04 03:55:00,10.6,6.7,30.09,South,180,4.7,6.7,84,0.00,,,0.00,WUHU216HW,2013-01-04 09:55:00,
2013-01-04 04:00:00,10.4,6.2,30.09,SSW,203,3.4,6.7,83,0.00,,,0.00,WUHU216HW,2013-01-04 10:00:00,
2013-01-04 04:05:00,10.4,6.2,30.08,South,180,4.9,5.8,83,0.00,,,0.00,WUHU216HW,2013-01-04 10:05:00,
2013-01-04 04:10:00,10.3,6.3,30.08,WSW,248,4.0,5.8,84,0.00,,,0.00,WUHU216HW,2013-01-04 10:10:00,
2013-01-04 04:15:00,10.3,6.3,30.08,SW,225,4.0,7.6,84,0.00,,,0.00,WUHU216HW,2013-01-04 10:15:00,
2013-01-04 04:20:00,10.3,6.3,30.08,WSW,248,4.0,7.6,84,0.00,,,0.00,WUHU216HW,2013-01-04 10:20:00,
2013-01-04 04:25:00,10.3,6.3,30.08,SSW,203,1.3,6.3,84,0.00,,,0.00,WUHU216HW,2013-01-04 10:25:00,
2013-01-04 04:30:00,10.3,6.6,30.08,WSW,248,4.0,7.6,85,0.00,,,0.00,WUHU216HW,2013-01-04 10:30:00,
2013-01-04 04:35:00,10.3,6.6,30.08,SW,225,3.1,7.6,85,0.00,,,0.00,WUHU216HW,2013-01-04 10:35:00,
2013-01-04 04:40:00,10.4,6.8,30.08,WSW,248,3.4,5.4,85,0.00,,,0.00,WUHU216HW,2013-01-04 10:40:00,
2013-01-04 04:45:00,10.4,6.8,30.07,SE,135,2.2,5.8,85,0.00,,,0.00,WUHU216HW,2013-01-04 10:45:00,
2013-01-04 04:50:00,10.4,6.8,30.07,West,270,5.1,7.2,85,0.00,,,0.00,WUHU216HW,2013-01-04 10:50:00,
2013-01-04 04:55:00,10.4,6.8,30.07,SW,225,5.8,7.2,85,0.00,,,0.00,WUHU216HW,2013-01-04 10:55:00,
2013-01-04 05:00:00,10.6,6.9,30.06,SW,225,6.3,9.6,85,0.00,,,0.00,WUHU216HW,2013-01-04 11:00:00,
2013-01-04 05:05:00,10.8,7.1,30.06,SSW,203,6.7,9.6,85,0.00,,,0.00,WUHU216HW,2013-01-04 11:05:00,
2013-01-04 05:10:00,11.0,7.3,30.06,West,270,7.6,9.2,85,0.00,,,0.00,WUHU216HW,2013-01-04 11:10:00,
2013-01-04 05:15:00,11.0,7.3,30.06,WSW,248,5.8,7.6,85,0.00,,,0.00,WUHU216HW,2013-01-04 11:15:00,
2013-01-04 05:20:00,11.2,7.5,30.06,WSW,248,3.4,6.5,85,0.00,,,0.00,WUHU216HW,2013-01-04 11:20:00,
2013-01-04 05:25:00,11.2,7.5,30.06,SSW,203,4.5,6.7,85,0.00,,,0.00,WUHU216HW,2013-01-04 11:25:00,
2013-01-04 05:30:00,11.2,7.5,30.07,SW,225,2.9,6.7,85,0.00,,,0.00,WUHU216HW,2013-01-04 11:30:00,
2013-01-04 05:35:00,11.2,7.5,30.07,SW,225,3.8,6.7,85,0.00,,,0.00,WUHU216HW,2013-01-04 11:35:00,
2013-01-04 05:40:00,11.2,7.5,30.07,SW,225,3.4,6.3,85,0.00,,,0.00,WUHU216HW,2013-01-04 11:40:00,
2013-01-04 05:45:00,11.2,7.5,30.07,South,180,1.8,6.3,85,0.00,,,0.00,WUHU216HW,2013-01-04 11:45:00,
2013-01-04 05:50:00,11.3,7.7,30.07,NE,45,0.7,6.0,85,0.00,,,0.00,WUHU216HW,2013-01-04 11:50:00,
2013-01-04 05:55:00,11.3,7.7,30.07,SSW,203,1.8,6.3,85,0.00,,,0.00,WUHU216HW,2013-01-04 11:55:00,
2013-01-04 06:00:00,11.3,7.7,30.07,WSW,248,5.1,6.3,85,0.00,,,0.00,WUHU216HW,2013-01-04 12:00:00,
2013-01-04 06:05:00,11.5,7.8,30.07,SSW,203,3.6,5.1,85,0.00,,,0.00,WUHU216HW,2013-01-04 12:05:00,
2013-01-04 06:10:00,11.5,7.8,30.07,SW,225,1.8,5.1,85,0.00,,,0.00,WUHU216HW,2013-01-04 12:10:00,
2013-01-04 06:15:00,11.7,8.0,30.07,West,270,3.4,6.3,85,0.00,,,0.00,WUHU216HW,2013-01-04 12:15:00,
2013-01-04 06:20:00,11.9,8.2,30.07,South,180,2.5,6.3,85,0.00,,,0.00,WUHU216HW,2013-01-04 12:20:00,
2013-01-04 06:25:00,11.9,8.2,30.07,South,180,4.7,6.3,85,0.00,,,0.00,WUHU216HW,2013-01-04 12:25:00,
2013-01-04 06:30:00,12.1,8.4,30.06,SW,225,2.7,6.3,85,0.00,,,0.00,WUHU216HW,2013-01-04 12:30:00,
2013-01-04 06:35:00,12.1,8.4,30.06,SSW,203,5.4,5.8,85,0.00,,,0.00,WUHU216HW,2013-01-04 12:35:00,
2013-01-04 06:40:00,12.1,8.4,30.07,SSE,158,2.5,5.4,85,0.00,,,0.00,WUHU216HW,2013-01-04 12:40:00,
2013-01-04 06:45:00,12.1,8.4,30.07,SSW,203,3.8,5.4,85,0.00,,,0.00,WUHU216HW,2013-01-04 12:45:00,
2013-01-04 06:50:00,12.2,8.6,30.07,SSW,203,1.8,5.4,85,0.00,,,0.00,WUHU216HW,2013-01-04 12:50:00,
2013-01-04 06:55:00,12.4,8.7,30.07,SW,225,3.4,4.9,85,0.00,,,0.00,WUHU216HW,2013-01-04 12:55:00,
2013-01-04 07:00:00,12.4,8.7,30.07,West,270,4.5,4.9,85,0.00,,,0.00,WUHU216HW,2013-01-04 13:00:00,
2013-01-04 07:05:00,12.6,8.9,30.07,WSW,248,4.7,5.4,85,0.00,,,0.00,WUHU216HW,2013-01-04 13:05:00,
2013-01-04 07:10:00,12.6,8.9,30.08,WSW,248,5.8,5.8,85,0.00,,,0.00,WUHU216HW,2013-01-04 13:10:00,
2013-01-04 07:15:00,12.6,8.9,30.08,SSE,158,2.7,6.0,85,0.00,,,0.00,WUHU216HW,2013-01-04 13:15:00,
2013-01-04 07:20:00,12.6,8.9,30.08,South,180,1.8,6.5,85,0.00,,,0.00,WUHU216HW,2013-01-04 13:20:00,
2013-01-04 07:25:00,12.8,9.1,30.08,SW,225,3.1,6.5,85,0.00,,,0.00,WUHU216HW,2013-01-04 13:25:00,
2013-01-04 07:30:00,12.8,8.8,30.08,West,270,0.7,6.3,84,0.00,,,0.00,WUHU216HW,2013-01-04 13:30:00,
2013-01-04 07:35:00,13.0,9.0,30.08,West,270,2.5,6.3,84,0.00,,,0.00,WUHU216HW,2013-01-04 13:35:00,
2013-01-04 07:40:00,12.8,8.8,30.08,SSW,203,3.4,5.4,84,0.00,,,0.00,WUHU216HW,2013-01-04 13:40:00,
2013-01-04 07:45:00,13.1,9.2,30.08,SW,225,4.5,6.3,84,0.00,,,0.00,WUHU216HW,2013-01-04 13:45:00,
2013-01-04 07:50:00,13.3,9.4,30.07,SSW,203,3.1,6.3,84,0.00,,,0.00,WUHU216HW,2013-01-04 13:50:00,
2013-01-04 07:55:00,13.3,9.6,30.08,SSW,203,1.8,7.4,85,0.00,,,0.00,WUHU216HW,2013-01-04 13:55:00,
2013-01-04 08:00:00,13.3,9.4,30.08,SW,225,5.4,7.4,84,0.00,,,0.00,WUHU216HW,2013-01-04 14:00:00,
2013-01-04 08:05:00,13.5,9.5,30.07,SSW,203,3.1,5.4,84,0.00,,,0.00,WUHU216HW,2013-01-04 14:05:00,
2013-01-04 08:10:00,13.7,9.7,30.07,SW,225,4.3,5.6,84,0.00,,,0.00,WUHU216HW,2013-01-04 14:10:00,
2013-01-04 08:15:00,14.0,10.1,30.07,SW,225,4.3,5.6,84,0.00,,,0.00,WUHU216HW,2013-01-04 14:15:00,
2013-01-04 08:20:00,14.0,10.1,30.07,SW,225,4.0,6.9,84,0.00,,,0.00,WUHU216HW,2013-01-04 14:20:00,
2013-01-04 08:25:00,14.2,10.3,30.07,SSW,203,4.7,6.9,84,0.00,,,0.00,WUHU216HW,2013-01-04 14:25:00,
2013-01-04 08:30:00,14.6,10.4,30.07,SW,225,4.3,6.5,83,0.00,,,0.00,WUHU216HW,2013-01-04 14:30:00,
2013-01-04 08:35:00,14.8,10.5,30.06,SW,225,5.6,6.7,83,0.00,,,0.00,WUHU216HW,2013-01-04 14:35:00,
2013-01-04 08:40:00,14.9,10.5,30.06,South,180,2.5,6.7,82,0.00,,,0.00,WUHU216HW,2013-01-04 14:40:00,
2013-01-04 08:45:00,15.1,10.6,30.07,SSE,158,6.3,6.3,82,0.00,,,0.00,WUHU216HW,2013-01-04 14:45:00,
2013-01-04 08:50:00,15.3,10.8,30.07,SW,225,3.4,6.3,82,0.00,,,0.00,WUHU216HW,2013-01-04 14:50:00,
2013-01-04 08:55:00,15.5,10.7,30.07,SW,225,4.0,6.9,81,0.00,,,0.00,WUHU216HW,2013-01-04 14:55:00,
2013-01-04 09:00:00,15.8,11.1,30.07,WSW,248,2.9,6.9,81,0.00,,,0.00,WUHU216HW,2013-01-04 15:00:00,
2013-01-04 09:05:00,16.2,11.3,30.07,SW,225,5.4,6.5,81,0.00,,,0.00,WUHU216HW,2013-01-04 15:05:00,
2013-01-04 09:10:00,16.6,11.7,30.07,North,0,2.5,7.4,81,0.00,,,0.00,WUHU216HW,2013-01-04 15:10:00,
2013-01-04 09:15:00,16.9,12.1,30.07,SW,225,8.5,8.5,81,0.00,,,0.00,WUHU216HW,2013-01-04 15:15:00,
2013-01-04 09:20:00,17.5,12.2,30.07,West,270,4.9,8.5,80,0.00,,,0.00,WUHU216HW,2013-01-04 15:20:00,
2013-01-04 09:25:00,17.6,12.2,30.07,East,90,4.7,8.5,79,0.00,,,0.00,WUHU216HW,2013-01-04 15:25:00,
2013-01-04 09:30:00,18.0,12.8,30.07,South,180,4.0,7.8,80,0.00,,,0.00,WUHU216HW,2013-01-04 15:30:00,
2013-01-04 09:35:00,18.2,12.7,30.08,SE,135,6.3,7.8,79,0.00,,,0.00,WUHU216HW,2013-01-04 15:35:00,
2013-01-04 09:40:00,18.4,12.9,30.08,SW,225,6.9,7.6,79,0.00,,,0.00,WUHU216HW,2013-01-04 15:40:00,
2013-01-04 09:45:00,18.5,12.7,30.07,ESE,113,0.9,6.9,78,0.00,,,0.00,WUHU216HW,2013-01-04 15:45:00,
2013-01-04 09:50:00,18.9,13.1,30.07,South,180,1.8,6.9,78,0.00,,,0.00,WUHU216HW,2013-01-04 15:50:00,
2013-01-04 09:55:00,19.3,13.4,30.08,WSW,248,4.7,6.7,78,0.00,,,0.00,WUHU216HW,2013-01-04 15:55:00,
2013-01-04 10:00:00,19.8,13.7,30.08,SSW,203,3.8,5.8,77,0.00,,,0.00,WUHU216HW,2013-01-04 16:00:00,
2013-01-04 10:05:00,20.2,14.1,30.08,SE,135,1.3,6.7,77,0.00,,,0.00,WUHU216HW,2013-01-04 16:05:00,
2013-01-04 10:10:00,20.3,13.9,30.08,WNW,293,3.4,7.6,76,0.00,,,0.00,WUHU216HW,2013-01-04 16:10:00,
2013-01-04 10:15:00,20.5,14.0,30.08,SW,225,2.5,7.6,76,0.00,,,0.00,WUHU216HW,2013-01-04 16:15:00,
2013-01-04 10:20:00,20.9,14.1,30.07,South,180,4.9,7.6,75,0.00,,,0.00,WUHU216HW,2013-01-04 16:20:00,
2013-01-04 10:25:00,21.4,14.9,30.07,North,0,4.0,7.6,76,0.00,,,0.00,WUHU216HW,2013-01-04 16:25:00,
2013-01-04 10:30:00,21.8,15.0,30.07,SSE,158,1.8,5.4,75,0.00,,,0.00,WUHU216HW,2013-01-04 16:30:00,
2013-01-04 10:35:00,22.3,15.6,30.07,SE,135,1.8,5.8,75,0.00,,,0.00,WUHU216HW,2013-01-04 16:35:00,
2013-01-04 10:40:00,22.5,15.5,30.07,SW,225,3.6,5.8,74,0.00,,,0.00,WUHU216HW,2013-01-04 16:40:00,
2013-01-04 10:45:00,22.9,15.9,30.07,SW,225,4.7,4.9,74,0.00,,,0.00,WUHU216HW,2013-01-04 16:45:00,
2013-01-04 10:50:00,23.6,16.2,30.07,NW,315,2.2,5.4,73,0.00,,,0.00,WUHU216HW,2013-01-04 16:50:00,
2013-01-04 10:55:00,24.1,16.4,30.07,South,180,2.7,5.4,72,0.00,,,0.00,WUHU216HW,2013-01-04 16:55:00,
2013-01-04 11:00:00,24.5,16.4,30.07,WSW,248,0.4,5.4,71,0.00,,,0.00,WUHU216HW,2013-01-04 17:00:00,
2013-01-04 11:05:00,24.8,16.4,30.07,South,180,3.6,6.3,70,0.00,,,0.00,WUHU216HW,2013-01-04 17:05:00,
2013-01-04 11:10:00,25.0,16.6,30.07,WSW,248,4.7,6.3,70,0.00,,,0.00,WUHU216HW,2013-01-04 17:10:00,
2013-01-04 11:15:00,25.6,17.1,30.07,South,180,1.3,6.3,70,0.00,,,0.00,WUHU216HW,2013-01-04 17:15:00,
2013-01-04 11:20:00,26.1,17.6,30.06,SW,225,3.4,6.3,70,0.00,,,0.00,WUHU216HW,2013-01-04 17:20:00,
2013-01-04 11:25:00,26.3,17.8,30.06,SE,135,3.8,6.0,70,0.00,,,0.00,WUHU216HW,2013-01-04 17:25:00,
2013-01-04 11:30:00,26.5,18.0,30.06,NNW,338,1.1,5.6,70,0.00,,,0.00,WUHU216HW,2013-01-04 17:30:00,
2013-01-04 11:35:00,26.6,17.5,30.06,SW,225,3.4,4.9,68,0.00,,,0.00,WUHU216HW,2013-01-04 17:35:00,
2013-01-04 11:40:00,27.0,17.8,30.06,WNW,293,2.7,5.6,68,0.00,,,0.00,WUHU216HW,2013-01-04 17:40:00,
2013-01-04 11:45:00,27.4,18.2,30.06,SW,225,5.8,5.8,68,0.00,,,0.00,WUHU216HW,2013-01-04 17:45:00,
2013-01-04 11:50:00,27.9,18.0,30.05,South,180,2.9,6.3,66,0.00,,,0.00,WUHU216HW,2013-01-04 17:50:00,
2013-01-04 11:55:00,28.1,18.2,30.05,SW,225,6.3,6.3,66,0.00,,,0.00,WUHU216HW,2013-01-04 17:55:00,
2013-01-04 12:00:00,28.6,18.7,30.05,WSW,248,1.8,6.3,66,0.00,,,0.00,WUHU216HW,2013-01-04 18:00:00,
2013-01-04 12:05:00,29.3,19.4,30.05,NNW,338,1.1,6.3,66,0.00,,,0.00,WUHU216HW,2013-01-04 18:05:00,
2013-01-04 12:10:00,29.9,19.1,30.05,SW,225,2.0,5.4,64,0.00,,,0.00,WUHU216HW,2013-01-04 18:10:00,
2013-01-04 12:15:00,30.6,19.8,30.05,NNE,23,1.8,5.4,64,0.00,,,0.00,WUHU216HW,2013-01-04 18:15:00,
2013-01-04 12:20:00,31.0,19.8,30.04,SW,225,1.3,5.4,63,0.00,,,0.00,WUHU216HW,2013-01-04 18:20:00,
2013-01-04 12:25:00,31.1,19.6,30.04,North,0,0.9,6.3,62,0.00,,,0.00,WUHU216HW,2013-01-04 18:25:00,
2013-01-04 12:30:00,31.3,19.8,30.04,SSW,203,0.7,6.3,62,0.00,,,0.00,WUHU216HW,2013-01-04 18:30:00,
2013-01-04 12:35:00,31.1,19.6,30.04,SSE,158,2.2,4.7,62,0.00,,,0.00,WUHU216HW,2013-01-04 18:35:00,
2013-01-04 12:40:00,30.8,19.3,30.04,NNW,338,1.8,4.7,62,0.00,,,0.00,WUHU216HW,2013-01-04 18:40:00,
2013-01-04 12:45:00,31.3,19.8,30.04,North,0,2.5,4.7,62,0.00,,,0.00,WUHU216HW,2013-01-04 18:45:00,
2013-01-04 12:50:00,31.1,19.6,30.04,ENE,68,3.6,5.6,62,0.00,,,0.00,WUHU216HW,2013-01-04 18:50:00,
2013-01-04 12:55:00,31.3,19.8,30.04,SSW,203,1.8,5.6,62,0.00,,,0.00,WUHU216HW,2013-01-04 18:55:00,
2013-01-04 13:00:00,32.9,20.6,30.04,SSE,158,3.4,4.7,60,0.00,,,0.00,WUHU216HW,2013-01-04 19:00:00,
2013-01-04 13:05:00,32.9,20.2,30.04,ESE,113,1.6,4.7,59,0.00,,,0.00,WUHU216HW,2013-01-04 19:05:00,
2013-01-04 13:10:00,32.8,19.2,30.04,North,0,4.5,6.5,57,0.00,,,0.00,WUHU216HW,2013-01-04 19:10:00,
2013-01-04 13:15:00,31.9,18.7,30.04,North,0,1.3,6.5,58,0.00,,,0.00,WUHU216HW,2013-01-04 19:15:00,
2013-01-04 13:20:00,32.0,18.9,30.04,NW,315,2.5,4.9,58,0.00,,,0.00,WUHU216HW,2013-01-04 19:20:00,
2013-01-04 13:25:00,32.4,19.7,30.04,NE,45,3.1,4.9,59,0.00,,,0.00,WUHU216HW,2013-01-04 19:25:00,
2013-01-04 13:30:00,32.8,20.4,30.04,NW,315,2.5,4.9,60,0.00,,,0.00,WUHU216HW,2013-01-04 19:30:00,
2013-01-04 13:35:00,33.5,20.3,30.04,South,180,4.5,5.4,58,0.00,,,0.00,WUHU216HW,2013-01-04 19:35:00,
2013-01-04 13:40:00,34.0,19.9,30.04,SSW,203,2.5,5.4,56,0.00,,,0.00,WUHU216HW,2013-01-04 19:40:00,
2013-01-04 13:45:00,34.2,20.1,30.04,North,0,3.4,7.6,56,0.00,,,0.00,WUHU216HW,2013-01-04 19:45:00,
2013-01-04 13:50:00,34.2,20.5,30.04,NW,315,0.9,7.6,57,0.00,,,0.00,WUHU216HW,2013-01-04 19:50:00,
2013-01-04 13:55:00,34.7,20.6,30.04,NNW,338,3.1,4.5,56,0.00,,,0.00,WUHU216HW,2013-01-04 19:55:00,
2013-01-04 14:00:00,35.3,21.2,30.04,South,180,2.9,4.9,56,0.00,,,0.00,WUHU216HW,2013-01-04 20:00:00,
2013-01-04 14:05:00,36.5,21.4,30.05,South,180,2.2,4.9,54,0.00,,,0.00,WUHU216HW,2013-01-04 20:05:00,
2013-01-04 14:10:00,36.9,21.3,30.05,WSW,248,1.1,4.5,53,0.00,,,0.00,WUHU216HW,2013-01-04 20:10:00,
2013-01-04 14:15:00,36.9,20.9,30.05,SSE,158,5.4,5.4,52,0.00,,,0.00,WUHU216HW,2013-01-04 20:15:00,
2013-01-04 14:20:00,37.1,21.1,30.05,SW,225,2.2,5.4,52,0.00,,,0.00,WUHU216HW,2013-01-04 20:20:00,
2013-01-04 14:25:00,36.4,20.9,30.05,North,0,2.5,4.0,53,0.00,,,0.00,WUHU216HW,2013-01-04 20:25:00,
2013-01-04 14:30:00,36.0,20.5,30.05,SE,135,1.6,3.8,53,0.00,,,0.00,WUHU216HW,2013-01-04 20:30:00,
2013-01-04 14:35:00,33.3,19.2,30.05,SSW,203,2.0,4.7,56,0.00,,,0.00,WUHU216HW,2013-01-04 20:35:00,
2013-01-04 14:40:00,31.5,18.8,30.06,South,180,1.1,4.7,59,0.00,,,0.00,WUHU216HW,2013-01-04 20:40:00,
2013-01-04 14:45:00,31.1,19.3,30.06,North,0,1.8,3.4,61,0.00,,,0.00,WUHU216HW,2013-01-04 20:45:00,
2013-01-04 14:50:00,31.0,19.4,30.06,SW,225,5.6,5.6,62,0.00,,,0.00,WUHU216HW,2013-01-04 20:50:00,
2013-01-04 14:55:00,30.6,19.1,30.07,SSW,203,2.9,5.6,62,0.00,,,0.00,WUHU216HW,2013-01-04 20:55:00,
2013-01-04 15:00:00,30.2,19.1,30.07,NNW,338,2.2,5.6,63,0.00,,,0.00,WUHU216HW,2013-01-04 21:00:00,
2013-01-04 15:05:00,30.1,19.3,30.07,ESE,113,1.1,4.9,64,0.00,,,0.00,WUHU216HW,2013-01-04 21:05:00,
2013-01-04 15:10:00,29.9,19.1,30.07,WSW,248,2.5,4.5,64,0.00,,,0.00,WUHU216HW,2013-01-04 21:10:00,
2013-01-04 15:15:00,29.9,19.1,30.07,NW,315,4.0,4.0,64,0.00,,,0.00,WUHU216HW,2013-01-04 21:15:00,
2013-01-04 15:20:00,29.5,19.2,30.07,SW,225,4.7,5.1,65,0.00,,,0.00,WUHU216HW,2013-01-04 21:20:00,
2013-01-04 15:25:00,29.3,19.4,30.07,SSW,203,3.8,5.4,66,0.00,,,0.00,WUHU216HW,2013-01-04 21:25:00,
2013-01-04 15:30:00,29.2,18.8,30.07,WSW,248,1.8,5.4,65,0.00,,,0.00,WUHU216HW,2013-01-04 21:30:00,
2013-01-04 15:35:00,29.2,18.8,30.08,NW,315,1.1,5.1,65,0.00,,,0.00,WUHU216HW,2013-01-04 21:35:00,
2013-01-04 15:40:00,28.8,18.9,30.08,South,180,3.6,4.7,66,0.00,,,0.00,WUHU216HW,2013-01-04 21:40:00,
2013-01-04 15:45:00,28.6,18.7,30.08,NW,315,3.4,5.1,66,0.00,,,0.00,WUHU216HW,2013-01-04 21:45:00,
2013-01-04 15:50:00,28.4,18.9,30.07,WSW,248,4.0,5.1,67,0.00,,,0.00,WUHU216HW,2013-01-04 21:50:00,
2013-01-04 15:55:00,28.3,18.4,30.08,SW,225,3.4,5.1,66,0.00,,,0.00,WUHU216HW,2013-01-04 21:55:00,
2013-01-04 16:00:00,28.3,18.7,30.08,WSW,248,4.7,4.9,67,0.00,,,0.00,WUHU216HW,2013-01-04 22:00:00,
2013-01-04 16:05:00,27.9,18.4,30.09,NNW,338,1.1,4.9,67,0.00,,,0.00,WUHU216HW,2013-01-04 22:05:00,
2013-01-04 16:10:00,27.7,18.5,30.09,South,180,2.5,4.9,68,0.00,,,0.00,WUHU216HW,2013-01-04 22:10:00,
2013-01-04 16:15:00,27.7,18.5,30.09,SW,225,1.1,5.4,68,0.00,,,0.00,WUHU216HW,2013-01-04 22:15:00,
2013-01-04 16:20:00,27.4,18.2,30.09,East,90,0.2,5.4,68,0.00,,,0.00,WUHU216HW,2013-01-04 22:20:00,
2013-01-04 16:25:00,27.2,18.4,30.09,SSE,158,0.7,4.3,69,0.00,,,0.00,WUHU216HW,2013-01-04 22:25:00,
2013-01-04 16:30:00,27.0,18.2,30.09,SSE,158,2.7,3.1,69,0.00,,,0.00,WUHU216HW,2013-01-04 22:30:00,
2013-01-04 16:35:00,26.8,18.4,30.09,WSW,248,3.4,4.9,70,0.00,,,0.00,WUHU216HW,2013-01-04 22:35:00,
2013-01-04 16:40:00,26.8,18.4,30.10,SSW,203,4.0,4.9,70,0.00,,,0.00,WUHU216HW,2013-01-04 22:40:00,
2013-01-04 16:45:00,26.6,18.2,30.09,SSW,203,3.4,4.0,70,0.00,,,0.00,WUHU216HW,2013-01-04 22:45:00,
2013-01-04 16:50:00,26.6,18.2,30.10,SSW,203,2.2,4.0,70,0.00,,,0.00,WUHU216HW,2013-01-04 22:50:00,
2013-01-04 16:55:00,26.3,17.8,30.10,ESE,113,0.4,3.4,70,0.00,,,0.00,WUHU216HW,2013-01-04 22:55:00,
2013-01-04 17:00:00,26.1,17.9,30.10,SW,225,3.8,3.8,71,0.00,,,0.00,WUHU216HW,2013-01-04 23:00:00,
2013-01-04 17:05:00,25.9,18.1,30.10,WSW,248,0.9,4.5,72,0.00,,,0.00,WUHU216HW,2013-01-04 23:05:00,
2013-01-04 17:10:00,25.7,17.9,30.10,SSW,203,2.5,4.5,72,0.00,,,0.00,WUHU216HW,2013-01-04 23:10:00,
2013-01-04 17:15:00,25.7,17.9,30.11,SSE,158,2.0,3.4,72,0.00,,,0.00,WUHU216HW,2013-01-04 23:15:00,
2013-01-04 17:20:00,25.7,17.9,30.11,WSW,248,0.7,3.8,72,0.00,,,0.00,WUHU216HW,2013-01-04 23:20:00,
2013-01-04 17:25:00,25.7,17.9,30.11,SSW,203,3.8,3.8,72,0.00,,,0.00,WUHU216HW,2013-01-04 23:25:00,
2013-01-04 17:30:00,25.7,17.9,30.11,WSW,248,2.2,4.7,72,0.00,,,0.00,WUHU216HW,2013-01-04 23:30:00,
2013-01-04 17:35:00,25.6,17.7,30.11,West,270,1.8,4.7,72,0.00,,,0.00,WUHU216HW,2013-01-04 23:35:00,
2013-01-04 17:40:00,25.6,17.7,30.12,NNE,23,0.9,3.8,72,0.00,,,0.00,WUHU216HW,2013-01-04 23:40:00,
2013-01-04 17:45:00,25.4,17.6,30.12,WSW,248,2.2,3.8,72,0.00,,,0.00,WUHU216HW,2013-01-04 23:45:00,
2013-01-04 17:50:00,25.4,17.6,30.12,SSW,203,2.7,3.8,72,0.00,,,0.00,WUHU216HW,2013-01-04 23:50:00,
2013-01-04 17:55:00,25.2,17.4,30.12,SW,225,0.0,3.8,72,0.00,,,0.00,WUHU216HW,2013-01-04 23:55:00,
2013-01-04 18:00:00,24.7,16.8,30.12,SSW,203,0.0,2.5,72,0.00,,,0.00,WUHU216HW,2013-01-05 00:00:00,
2013-01-04 18:05:00,24.1,16.7,30.12,SW,225,1.8,2.5,73,0.00,,,0.00,WUHU216HW,2013-01-05 00:05:00,
2013-01-04 18:10:00,24.1,17.3,30.13,South,180,0.4,2.7,75,0.00,,,0.00,WUHU216HW,2013-01-05 00:10:00,
2013-01-04 18:15:00,24.1,17.0,30.13,SW,225,0.4,2.7,74,0.00,,,0.00,WUHU216HW,2013-01-05 00:15:00,
2013-01-04 18:20:00,23.9,16.8,30.12,West,270,1.1,2.5,74,0.00,,,0.00,WUHU216HW,2013-01-05 00:20:00,
2013-01-04 18:25:00,23.8,17.0,30.13,SSW,203,1.8,2.5,75,0.00,,,0.00,WUHU216HW,2013-01-05 00:25:00,
2013-01-04 18:30:00,23.8,17.0,30.12,SSW,203,1.8,3.8,75,0.00,,,0.00,WUHU216HW,2013-01-05 00:30:00,
2013-01-04 18:35:00,23.6,17.1,30.13,SW,225,2.5,3.8,76,0.00,,,0.00,WUHU216HW,2013-01-05 00:35:00,
2013-01-04 18:40:00,23.6,17.1,30.13,SSW,203,1.8,3.4,76,0.00,,,0.00,WUHU216HW,2013-01-05 00:40:00,
2013-01-04 18:45:00,23.6,17.1,30.13,SE,135,0.2,3.8,76,0.00,,,0.00,WUHU216HW,2013-01-05 00:45:00,
2013-01-04 18:50:00,23.6,17.1,30.13,SW,225,0.9,3.8,76,0.00,,,0.00,WUHU216HW,2013-01-05 00:50:00,
2013-01-04 18:55:00,23.4,17.3,30.13,SSW,203,0.7,2.5,77,0.00,,,0.00,WUHU216HW,2013-01-05 00:55:00,
2013-01-04 19:00:00,23.4,17.3,30.13,WSW,248,1.1,2.5,77,0.00,,,0.00,WUHU216HW,2013-01-05 01:00:00,
2013-01-04 19:05:00,23.4,17.3,30.13,WNW,293,0.0,2.2,77,0.00,,,0.00,WUHU216HW,2013-01-05 01:05:00,
2013-01-04 19:10:00,23.4,17.3,30.13,SSW,203,1.8,2.2,77,0.00,,,0.00,WUHU216HW,2013-01-05 01:10:00,
2013-01-04 19:15:00,23.2,17.1,30.14,NW,315,0.0,2.2,77,0.00,,,0.00,WUHU216HW,2013-01-05 01:15:00,
2013-01-04 19:20:00,23.0,16.9,30.14,WSW,248,0.9,3.4,77,0.00,,,0.00,WUHU216HW,2013-01-05 01:20:00,
2013-01-04 19:25:00,23.2,17.1,30.14,West,270,1.6,3.4,77,0.00,,,0.00,WUHU216HW,2013-01-05 01:25:00,
2013-01-04 19:30:00,23.2,17.1,30.14,SW,225,3.1,3.1,77,0.00,,,0.00,WUHU216HW,2013-01-05 01:30:00,
2013-01-04 19:35:00,23.2,17.1,30.14,SSW,203,1.1,3.1,77,0.00,,,0.00,WUHU216HW,2013-01-05 01:35:00,
2013-01-04 19:40:00,23.4,17.3,30.13,SW,225,1.8,3.1,77,0.00,,,0.00,WUHU216HW,2013-01-05 01:40:00,
2013-01-04 19:45:00,23.2,17.1,30.13,NNE,23,1.3,3.1,77,0.00,,,0.00,WUHU216HW,2013-01-05 01:45:00,
2013-01-04 19:50:00,23.0,16.9,30.13,SSW,203,2.5,3.1,77,0.00,,,0.00,WUHU216HW,2013-01-05 01:50:00,
2013-01-04 19:55:00,23.0,17.2,30.14,SW,225,1.1,3.1,78,0.00,,,0.00,WUHU216HW,2013-01-05 01:55:00,
2013-01-04 20:00:00,23.0,17.2,30.14,WSW,248,0.0,2.5,78,0.00,,,0.00,WUHU216HW,2013-01-05 02:00:00,
2013-01-04 20:05:00,22.7,16.8,30.14,SSE,158,0.0,1.6,78,0.00,,,0.00,WUHU216HW,2013-01-05 02:05:00,
2013-01-04 20:10:00,22.7,16.8,30.14,SW,225,0.0,1.8,78,0.00,,,0.00,WUHU216HW,2013-01-05 02:10:00,
2013-01-04 20:15:00,22.5,16.7,30.14,SW,225,0.7,2.0,78,0.00,,,0.00,WUHU216HW,2013-01-05 02:15:00,
2013-01-04 20:20:00,22.3,16.5,30.13,SW,225,0.9,2.0,78,0.00,,,0.00,WUHU216HW,2013-01-05 02:20:00,
2013-01-04 20:25:00,22.3,16.8,30.13,WSW,248,0.7,2.0,79,0.00,,,0.00,WUHU216HW,2013-01-05 02:25:00,
2013-01-04 20:30:00,22.3,16.8,30.13,SSW,203,0.4,2.0,79,0.00,,,0.00,WUHU216HW,2013-01-05 02:30:00,
2013-01-04 20:35:00,22.1,16.7,30.14,WSW,248,1.3,2.5,79,0.00,,,0.00,WUHU216HW,2013-01-05 02:35:00,
2013-01-04 20:40:00,22.0,16.7,30.14,SSW,203,0.0,2.5,80,0.00,,,0.00,WUHU216HW,2013-01-05 02:40:00,
2013-01-04 20:45:00,22.0,16.5,30.14,SW,225,0.0,2.0,79,0.00,,,0.00,WUHU216HW,2013-01-05 02:45:00,
2013-01-04 20:50:00,21.8,16.6,30.13,SW,225,1.8,3.1,80,0.00,,,0.00,WUHU216HW,2013-01-05 02:50:00,
2013-01-04 20:55:00,21.8,16.6,30.13,SW,225,1.1,3.1,80,0.00,,,0.00,WUHU216HW,2013-01-05 02:55:00,
2013-01-04 21:00:00,21.8,16.6,30.13,WSW,248,0.0,1.8,80,0.00,,,0.00,WUHU216HW,2013-01-05 03:00:00,
2013-01-04 21:05:00,21.6,16.4,30.14,SW,225,0.7,1.1,80,0.00,,,0.00,WUHU216HW,2013-01-05 03:05:00,
2013-01-04 21:10:00,21.4,16.2,30.14,South,180,0.4,1.1,80,0.00,,,0.00,WUHU216HW,2013-01-05 03:10:00,
2013-01-04 21:15:00,21.2,16.3,30.14,South,180,1.1,1.8,81,0.00,,,0.00,WUHU216HW,2013-01-05 03:15:00,
2013-01-04 21:20:00,21.4,16.7,30.13,WSW,248,1.1,3.8,82,0.00,,,0.00,WUHU216HW,2013-01-05 03:20:00,
2013-01-04 21:25:00,21.4,16.5,30.14,SW,225,0.7,3.8,81,0.00,,,0.00,WUHU216HW,2013-01-05 03:25:00,
2013-01-04 21:30:00,21.2,16.6,30.13,West,270,1.6,2.2,82,0.00,,,0.00,WUHU216HW,2013-01-05 03:30:00,
2013-01-04 21:35:00,21.2,16.3,30.13,SW,225,1.3,2.2,81,0.00,,,0.00,WUHU216HW,2013-01-05 03:35:00,
2013-01-04 21:40:00,21.2,16.3,30.13,WSW,248,0.4,2.0,81,0.00,,,0.00,WUHU216HW,2013-01-05 03:40:00,
2013-01-04 21:45:00,21.2,16.6,30.14,SW,225,0.2,2.2,82,0.00,,,0.00,WUHU216HW,2013-01-05 03:45:00,
2013-01-04 21:50:00,21.1,16.4,30.13,WSW,248,2.5,2.5,82,0.00,,,0.00,WUHU216HW,2013-01-05 03:50:00,
2013-01-04 21:55:00,21.2,16.6,30.14,WSW,248,0.0,2.5,82,0.00,,,0.00,WUHU216HW,2013-01-05 03:55:00,
2013-01-04 22:00:00,21.2,16.6,30.14,WSW,248,1.1,2.5,82,0.00,,,0.00,WUHU216HW,2013-01-05 04:00:00,
2013-01-04 22:05:00,21.2,16.6,30.14,NW,315,0.2,2.2,82,0.00,,,0.00,WUHU216HW,2013-01-05 04:05:00,
2013-01-04 22:10:00,21.2,16.6,30.14,SW,225,0.4,1.8,82,0.00,,,0.00,WUHU216HW,2013-01-05 04:10:00,
2013-01-04 22:15:00,21.2,16.6,30.14,West,270,0.0,2.7,82,0.00,,,0.00,WUHU216HW,2013-01-05 04:15:00,
2013-01-04 22:20:00,21.2,16.6,30.15,West,270,2.9,3.1,82,0.00,,,0.00,WUHU216HW,2013-01-05 04:20:00,
2013-01-04 22:25:00,21.4,16.7,30.15,WSW,248,2.5,3.4,82,0.00,,,0.00,WUHU216HW,2013-01-05 04:25:00,
2013-01-04 22:30:00,21.4,16.7,30.15,SSW,203,2.9,4.0,82,0.00,,,0.00,WUHU216HW,2013-01-05 04:30:00,
2013-01-04 22:35:00,21.6,16.9,30.15,SSW,203,0.9,4.0,82,0.00,,,0.00,WUHU216HW,2013-01-05 04:35:00,
2013-01-04 22:40:00,21.6,16.9,30.15,WSW,248,1.8,3.6,82,0.00,,,0.00,WUHU216HW,2013-01-05 04:40:00,
2013-01-04 22:45:00,21.4,16.7,30.15,South,180,3.1,3.6,82,0.00,,,0.00,WUHU216HW,2013-01-05 04:45:00,
2013-01-04 22:50:00,21.4,16.7,30.15,SW,225,1.1,4.0,82,0.00,,,0.00,WUHU216HW,2013-01-05 04:50:00,
2013-01-04 22:55:00,21.2,16.3,30.15,SSW,203,0.0,4.0,81,0.00,,,0.00,WUHU216HW,2013-01-05 04:55:00,
2013-01-04 23:00:00,21.1,16.4,30.15,SW,225,1.8,2.9,82,0.00,,,0.00,WUHU216HW,2013-01-05 05:00:00,
2013-01-04 23:05:00,21.1,16.4,30.15,SSW,203,3.4,3.8,82,0.00,,,0.00,WUHU216HW,2013-01-05 05:05:00,
2013-01-04 23:10:00,21.1,16.4,30.15,NW,315,0.0,3.8,82,0.00,,,0.00,WUHU216HW,2013-01-05 05:10:00,
2013-01-04 23:15:00,21.1,16.4,30.14,NNW,338,0.0,3.4,82,0.00,,,0.00,WUHU216HW,2013-01-05 05:15:00,
2013-01-04 23:20:00,20.9,16.2,30.14,North,0,0.2,0.9,82,0.00,,,0.00,WUHU216HW,2013-01-05 05:20:00,
2013-01-04 23:25:00,20.7,16.0,30.15,NW,315,0.0,1.1,82,0.00,,,0.00,WUHU216HW,2013-01-05 05:25:00,
2013-01-04 23:30:00,20.5,15.8,30.15,SW,225,0.0,1.1,82,0.00,,,0.00,WUHU216HW,2013-01-05 05:30:00,
2013-01-04 23:35:00,20.2,15.5,30.15,SW,225,0.0,0.0,82,0.00,,,0.00,WUHU216HW,2013-01-05 05:35:00,
2013-01-04 23:40:00,20.0,15.6,30.15,SW,225,1.1,1.8,83,0.00,,,0.00,WUHU216HW,2013-01-05 05:40:00,
2013-01-04 23:45:00,19.8,15.1,30.15,SW,225,0.0,1.8,82,0.00,,,0.00,WUHU216HW,2013-01-05 05:45:00,
2013-01-04 23:50:00,19.4,14.8,30.15,SW,225,0.0,1.6,82,0.00,,,0.00,WUHU216HW,2013-01-05 05:50:00,
2013-01-04 23:55:00,18.9,14.2,30.15,SW,225,0.0,0.0,82,0.00,,,0.00,WUHU216HW,2013-01-05 05:55:00,